Location: Platte
(43.3870°N, 98.8440°W)
Time: 08:02:23
(UTC-05:00)

Landsat 7 - Visible Passes

Search period start: 22 May 2015 00:00
Search period end: 01 June 2015 00:00
Orbit: 702 x 703 km, 98.2° (Epoch: 22 May)

Date Brightness Start Highest point End Pass type
(mag) Time Alt. Az. Time Alt. Az. Time Alt. Az.
22 May 4.6 22:32:46 21° ESE 22:35:21 37° ENE 22:39:44 10° N visible
23 May 5.4 00:11:39 21° WSW 00:13:14 25° W 00:17:07 10° NW visible
23 May 5.9 21:39:07 10° E 21:40:51 12° ENE 21:42:49 10° NE visible
23 May 3.8 23:15:58 35° SSE 23:17:59 86° WSW 23:22:46 10° NNW visible
24 May 5.0 22:20:18 16° ESE 22:23:12 29° ENE 22:27:18 10° N visible
24 May 5.1 23:59:10 25° SW 00:00:54 33° W 00:05:10 10° NNW visible
25 May 3.8 23:03:30 31° SSE 23:05:46 72° ENE 23:10:32 10° N visible
26 May 6.2 00:42:23 11° WSW 00:44:09 13° W 00:46:05 10° WNW visible
26 May 5.3 22:07:49 12° ESE 22:11:03 22° ENE 22:14:47 10° NNE visible
26 May 4.6 23:46:42 29° SSW 23:48:35 43° W 23:53:08 10° NNW visible
27 May 4.1 22:51:02 25° SE 22:53:35 55° ENE 22:58:14 10° N visible
28 May 5.9 00:29:55 14° WSW 00:31:44 17° W 00:34:42 10° NW visible
28 May 5.6 21:55:54 10° ESE 21:58:56 18° ENE 22:02:09 10° NNE visible
28 May 4.2 23:34:14 31° SSW 23:36:19 57° W 23:41:01 10° NNW visible
29 May 4.5 22:38:34 20° SE 22:41:23 42° ENE 22:45:53 10° N visible
30 May 5.6 00:17:27 18° SW 00:19:21 22° W 00:22:59 10° NW visible
30 May 5.9 21:44:34 10° E 21:46:50 14° ENE 21:49:19 10° NNE visible
30 May 3.9 23:21:46 31° S 23:24:03 76° WSW 23:28:50 10° NNW visible
31 May 4.8 22:26:06 16° ESE 22:29:13 32° ENE 22:33:28 10° N visible
